Weather History for Moses Lake, WA

Change the Weather History Date:

Sunday, June 3, 2012

  Actual Average Record
Temperature  
Mean Temperature 64 °F 64 °F  
Max Temperature 73 °F 77 °F 100 °F (2007)
Min Temperature 54 °F 50 °F 43 °F (1985)
Degree Days  
Heating Degree Days 1 3  
Month to date heating degree days 1 9  
Since 1 June heating degree days 1 9  
Since 1 July heating degree days 5752 5836  
Cooling Degree Days 0 2  
Month to date cooling degree days 8 6  
Year to date cooling degree days 35 31  
Since 1 June cooling degree days 8 6  
Growing Degree Days 13 (Base 50)    
Moisture  
Dew Point 37 °F    
Average Humidity 43    
Maximum Humidity 64    
Minimum Humidity 22    
Precipitation  
Precipitation 0.00 in 0.03 in 0.08 in (2008)
Month to date precipitation 0.09 0.11  
Year to date precipitation 2.98 4.13  
Sea Level Pressure  
Sea Level Pressure 29.86 in    
Wind  
Wind Speed 6 mph (SSW)    
Max Wind Speed 17 mph    
Max Gust Speed 24 mph    
Visibility 10 miles    
Events      
T = Trace of Precipitation, MM = Missing Value Source: NWS Daily Summary

Daily Weather History Graph

Daily Weather History Graph

Search for Another Location

Airport:

Trip Planner

Search our weather history database for the weather conditions in past years. The results will help you decide how hot, cold, wet, or windy it might be!

Date:

Astronomy

Jun. 03, 2012 Rise Set
Actual Time 5:03 AM PDT 8:47 PM PDT
Civil Twilight 4:24 AM PDT 9:26 PM PDT
Nautical Twilight 3:31 AM PDT 10:20 PM PDT
Astronomical Twilight 2:17 AM PDT 11:35 PM PDT
Moon 8:17 PM PDT (6/3) 4:19 AM PDT (6/3)
Length of Visible Light 17h 02m
Length of Day
15h 43m
Waxing Gibbous, 99% of the Moon is Illuminated
Jun 3
Waxing Gibbous
Jun 4
Full
Jun 11
Last Quarter
Jun 19
New
Jun 26
First Quarter

Hourly Weather History & Observations

Time (PDT) Temp. Dew Point Humidity Pressure Visibility Wind Dir Wind Speed Gust Speed Precip Events Conditions
12:52 AM 55.9 °F 37.9 °F 51% 29.85 in 10.0 mi SSE 4.6 mph - N/A   Clear
1:52 AM 57.0 °F 41.0 °F 55% 29.85 in 10.0 mi South 5.8 mph - N/A   Clear
2:52 AM 55.0 °F 42.1 °F 62% 29.85 in 10.0 mi South 3.5 mph - N/A   Clear
3:52 AM 55.9 °F 41.0 °F 57% 29.85 in 10.0 mi SSW 4.6 mph - N/A   Clear
4:52 AM 54.0 °F 41.0 °F 62% 29.85 in 10.0 mi SW 4.6 mph - N/A   Clear
5:52 AM 54.0 °F 41.0 °F 62% 29.86 in 10.0 mi Calm Calm - N/A   Clear
6:52 AM 55.0 °F 41.0 °F 59% 29.87 in 10.0 mi South 4.6 mph - N/A   Scattered Clouds
7:52 AM 57.0 °F 39.9 °F 53% 29.88 in 10.0 mi SW 5.8 mph - N/A   Clear
8:52 AM 59.0 °F 39.0 °F 48% 29.88 in 10.0 mi SW 5.8 mph - N/A   Partly Cloudy
9:52 AM 62.1 °F 37.0 °F 39% 29.88 in 10.0 mi South 4.6 mph - N/A   Mostly Cloudy
10:52 AM 64.0 °F 36.0 °F 35% 29.88 in 10.0 mi SSW 8.1 mph - N/A   Clear
11:52 AM 66.9 °F 34.0 °F 30% 29.88 in 10.0 mi SW 9.2 mph 16.1 mph N/A   Overcast
12:52 PM 70.0 °F 35.1 °F 28% 29.88 in 10.0 mi SW 12.7 mph 18.4 mph N/A   Clear
1:52 PM 69.1 °F 34.0 °F 27% 29.88 in 10.0 mi SW 8.1 mph 17.3 mph N/A   Partly Cloudy
2:52 PM 71.1 °F 33.1 °F 25% 29.87 in 10.0 mi SSW 9.2 mph - N/A   Scattered Clouds
3:52 PM 72.0 °F 37.9 °F 29% 29.86 in 10.0 mi South 11.5 mph 18.4 mph N/A   Mostly Cloudy
4:52 PM 71.1 °F 37.0 °F 29% 29.86 in 10.0 mi South 12.7 mph - N/A   Mostly Cloudy
5:52 PM 71.1 °F 34.0 °F 26% 29.85 in 10.0 mi SSW 9.2 mph - N/A   Overcast
6:52 PM 71.1 °F 30.9 °F 23% 29.85 in 10.0 mi South 10.4 mph - N/A   Overcast
7:52 PM 69.1 °F 28.9 °F 22% 29.85 in 10.0 mi SSW 3.5 mph - N/A   Scattered Clouds
8:52 PM 68.0 °F 30.9 °F 25% 29.85 in 10.0 mi SSW 5.8 mph - N/A   Mostly Cloudy
9:52 PM 66.0 °F 34.0 °F 30% 29.86 in 10.0 mi SSW 3.5 mph - N/A   Overcast
10:52 PM 64.9 °F 37.0 °F 36% 29.85 in 10.0 mi Calm Calm - N/A   Overcast
11:52 PM 63.0 °F 39.0 °F 41% 29.85 in 10.0 mi SE 3.5 mph - N/A   Overcast